EW5043 Weather Reports


time (UTC)temp
F
wind
direction
speed
knots
gust
knots
rain 1hr
in
rain 24hr
in
rain mn
in
humidity
%
barometer
mb
20200124030031 32 180 0.0 0.0 0.00 0.00 0.00 68 1025.7
20200124020245 32 180 0.0 0.0 0.00 0.00 0.00 69 1025.8
20200124013140 33 180 0.0 0.0 0.00 0.00 0.00 70 1026.0
20200124011726 33 180 0.0 0.0 0.00 0.00 0.00 72 1026.0
20200124003104 33 180 0.0 0.0 0.00 0.00 0.00 65 1026.0
20200124000011 34 180 0.0 0.0 0.00 0.00 0.00 58 1025.8
20200123233008 33 180 0.0 0.0 0.00 0.00 0.00 67 1025.5
20200123231907 33 180 0.0 0.0 0.00 0.00 0.00 70 1025.2
20200123224652 35 180 0.0 0.0 0.00 0.00 0.00 56 1024.9
20200123223115 35 180 0.0 0.0 0.00 0.00 0.00 57 1024.9
20200123220143 37 180 6.1 0.0 0.00 0.00 0.00 54 1024.5
20200123214643 36 180 0.0 0.0 0.00 0.00 0.00 62 1024.6
20200123213108 36 180 0.0 0.0 0.00 0.00 0.00 61 1024.6
20200123210050 37 180 0.0 0.0 0.00 0.00 0.00 57 1024.3
20200123204534 38 180 6.1 0.0 0.00 0.00 0.00 53 1024.5
20200123203042 37 179 6.1 0.0 0.00 0.00 0.00 50 1024.5
20200123201508 37 179 6.1 0.0 0.00 0.00 0.00 52 1024.7
20200123194701 38 173 4.3 0.0 0.00 0.00 0.00 50 1024.9
20200123193004 38 173 3.5 0.0 0.00 0.00 0.00 47 1024.7
20200123191738 37 184 1.7 0.0 0.00 0.00 0.00 50 1024.6
20200123184636 37 184 1.7 0.0 0.00 0.00 0.00 51 1024.8
20200123183051 36 208 0.9 0.0 0.00 0.00 0.00 56 1025.1
20200123180024 36 208 0.0 0.0 0.00 0.00 0.00 53 1025.5
20200123174526 35 208 1.7 0.0 0.00 0.00 0.00 55 1025.7
20200123173037 35 208 0.9 0.0 0.00 0.00 0.00 51 1025.8
20200123171521 35 208 4.3 0.0 0.00 0.00 0.00 52 1026.0
20200123170021 35 207 6.1 0.0 0.00 0.00 0.00 53 1026.2
20200123163321 34 200 6.1 0.0 0.00 0.00 0.00 56 1026.7
20200123162038 33 203 6.1 0.0 0.00 0.00 0.00 58 1027.0
20200123160221 32 199 7.8 0.0 0.00 0.00 0.00 56 1027.0
20200123153113 30 184 7.0 0.0 0.00 0.00 0.00 62 1026.9
20200123151558 29 184 7.0 0.0 0.00 0.00 0.00 64 1026.7
20200123144510 28 184 7.0 0.0 0.00 0.00 0.00 67 1026.6
20200123143030 27 185 7.0 0.0 0.00 0.00 0.00 69 1026.6
20200123141513 26 185 7.0 0.0 0.00 0.00 0.00 70 1026.5
20200123140026 26 184 7.0 0.0 0.00 0.00 0.00 70 1026.5
20200123134653 26 183 7.0 0.0 0.00 0.00 0.00 70 1026.6
20200123133001 26 183 7.0 0.0 0.00 0.00 0.00 68 1026.5
20200123131652 26 179 8.7 0.0 0.00 0.00 0.00 66 1026.3
20200123130153 27 180 7.0 0.0 0.00 0.00 0.00 66 1026.2
20200123124643 27 188 6.1 0.0 0.00 0.00 0.00 69 1026.2
20200123121617 28 198 6.1 0.0 0.00 0.00 0.00 69 1026.1
20200123120030 28 199 8.7 0.0 0.00 0.00 0.00 68 1026.0
20200123114525 27 199 7.0 0.0 0.00 0.00 0.00 71 1026.0
20200123111518 27 200 7.0 0.0 0.00 0.00 0.00 75 1026.1
20200123110029 27 200 7.0 0.0 0.00 0.00 0.00 76 1026.0
20200123104517 27 201 7.8 0.0 0.00 0.00 0.00 74 1026.1
20200123101505 27 202 7.0 0.0 0.00 0.00 0.00 74 1026.1
20200123100337 28 200 7.8 0.0 0.00 0.00 0.00 73 1026.2
20200123094653 28 205 7.0 0.0 0.00 0.00 0.00 74 1026.2
20200123091654 28 201 7.8 0.0 0.00 0.00 0.00 72 1026.2
20200123084608 28 202 7.0 0.0 0.00 0.00 0.00 72 1026.2
20200123080053 30 211 7.0 0.0 0.00 0.00 0.00 69 1026.3
20200123074603 30 205 6.1 0.0 0.00 0.00 0.00 70 1026.2
20200123071537 30 211 4.3 0.0 0.00 0.00 0.00 69 1026.3
20200123070023 30 211 4.3 0.0 0.00 0.00 0.00 70 1026.2
20200123064509 30 204 1.7 0.0 0.00 0.00 0.00 73 1026.2
20200123063032 29 204 6.1 0.0 0.00 0.00 0.00 75 1025.9
20200123061650 29 203 6.1 0.0 0.00 0.00 0.00 76 1026.1
20200123054836 30 204 7.0 0.0 0.00 0.00 0.00 73 1026.2
20200123053230 31 203 6.1 0.0 0.00 0.00 0.00 71 1026.2
20200123051627 31 205 6.1 0.0 0.00 0.00 0.00 68 1026.5
20200123041607 31 207 6.1 0.0 0.00 0.00 0.00 67 1026.4
20200123034557 31 206 6.1 0.0 0.00 0.00 0.00 71 1026.2